Weather History for KLCH - July, 2013

Change the Weather History Date:

Friday, July 26, 2013

  Actual Average Record
Temperature  
Mean Temperature 85 °F 83 °F  
Max Temperature 94 °F 92 °F 101 °F (1912)
Min Temperature 76 °F 75 °F 64 °F (1915)
Degree Days  
Heating Degree Days 0 0  
Month to date heating degree days 0 0  
Since 1 June heating degree days 0 0  
Since 1 July heating degree days 0 0  
Cooling Degree Days 20 18  
Month to date cooling degree days 478 465  
Year to date cooling degree days 1508 1483  
Since 1 June cooling degree days 1023 945  
Growing Degree Days 34 (Base 50)    
Moisture  
Dew Point 74 °F    
Average Humidity 70    
Maximum Humidity 94    
Minimum Humidity 46    
Precipitation  
Precipitation 0.00 in 0.17 in 5.18 in (2006)
Month to date precipitation 1.20 4.77  
Year to date precipitation 34.78 32.50  
Snow  
Snow 0.00 in 0.00 in 0.00 in ()
Month to date snowfall 0.0 0.0  
Since 1 June snowfall 0.0 0.0  
Since 1 July snowfall 0.0 0.0  
Snow Depth 0.00 in    
Sea Level Pressure  
Sea Level Pressure 30.03 in    
Wind  
Wind Speed 6 mph (SW)    
Max Wind Speed 14 mph    
Max Gust Speed 22 mph    
Visibility 10 miles    
Events      
T = Trace of Precipitation, MM = Missing Value Source: NWS Daily Summary

Daily Weather History Graph

Daily Weather History Graph

Search for Another Location

Airport or City:

Trip Planner

Search our weather history database for the weather conditions in past years. The results will help you decide how hot, cold, wet, or windy it might be!

Date:

Astronomy

Jul. 26, 2013 Rise Set
Actual Time 6:28 AM CDT 8:10 PM CDT
Civil Twilight 6:01 AM CDT 8:36 PM CDT
Nautical Twilight 5:30 AM CDT 9:08 PM CDT
Astronomical Twilight 4:56 AM CDT 9:41 PM CDT
Moon 10:51 PM CDT (7/26) 10:40 AM CDT (7/26)
Length of Visible Light 14h 34m
Length of Day
13h 41m
Waning Gibbous, 80% of the Moon is Illuminated
Jul 26
Waning Gibbous
Jul 29
Last Quarter
Aug 6
New
Aug 14
First Quarter
Aug 20
Full

Hourly Weather History & Observations

Time (CDT) Temp. Heat Index Dew Point Humidity Pressure Visibility Wind Dir Wind Speed Gust Speed Precip Events Conditions
12:53 AM 80.1 °F 85.4 °F 75.9 °F 87% 30.05 in 10.0 mi Calm Calm - N/A   Clear
1:53 AM 80.1 °F 85.4 °F 75.9 °F 87% 30.05 in 10.0 mi Calm Calm - N/A   Clear
2:53 AM 78.1 °F - 75.0 °F 90% 30.05 in 10.0 mi Calm Calm - N/A   Clear
3:53 AM 77.0 °F - 73.9 °F 90% 30.04 in 10.0 mi Calm Calm - N/A   Clear
4:53 AM 77.0 °F - 73.9 °F 90% 30.05 in 10.0 mi Calm Calm - N/A   Clear
5:53 AM 75.9 °F - 73.9 °F 94% 30.06 in 10.0 mi Calm Calm - N/A   Clear
6:53 AM 77.0 °F - 73.9 °F 90% 30.06 in 10.0 mi Calm Calm - N/A   Clear
7:53 AM 80.1 °F 85.4 °F 75.9 °F 87% 30.08 in 10.0 mi Calm Calm - N/A   Clear
8:53 AM 84.9 °F 94.1 °F 75.9 °F 74% 30.09 in 10.0 mi Calm Calm - N/A   Clear
9:21 AM 84.2 °F 92.3 °F 75.2 °F 74% 30.06 in 10.0 mi West 4.6 mph - N/A   Mostly Cloudy
9:50 AM 86.0 °F 95.1 °F 75.2 °F 70% 30.05 in 10.0 mi West 4.6 mph - N/A   Mostly Cloudy
9:53 AM 87.1 °F 96.3 °F 75.0 °F 67% 30.07 in 10.0 mi WNW 4.6 mph - N/A   Mostly Cloudy
10:53 AM 87.1 °F 95.4 °F 73.9 °F 65% 30.07 in 10.0 mi WSW 6.9 mph - N/A   Mostly Cloudy
11:53 AM 90.0 °F 95.4 °F 70.0 °F 52% 30.07 in 10.0 mi West 9.2 mph - N/A   Partly Cloudy
12:53 PM 93.0 °F 99.0 °F 70.0 °F 47% 30.06 in 10.0 mi WSW 9.2 mph - N/A   Partly Cloudy
1:53 PM 91.9 °F 98.4 °F 71.1 °F 50% 30.04 in 10.0 mi SW 8.1 mph - N/A   Partly Cloudy
2:53 PM 91.9 °F 103.2 °F 75.0 °F 58% 30.02 in 10.0 mi SSW 11.5 mph 18.4 mph N/A   Partly Cloudy
3:53 PM 91.0 °F 100.4 °F 73.9 °F 57% 30.01 in 10.0 mi SSW 9.2 mph 17.3 mph N/A   Clear
4:53 PM 90.0 °F 97.9 °F 73.0 °F 57% 29.99 in 10.0 mi SSW 10.4 mph 18.4 mph N/A   Clear
5:53 PM 89.1 °F 98.0 °F 73.9 °F 61% 29.99 in 10.0 mi South 9.2 mph 17.3 mph N/A   Clear
6:53 PM 87.1 °F 95.4 °F 73.9 °F 65% 29.97 in 10.0 mi SSW 11.5 mph 17.3 mph N/A   Clear
7:53 PM 84.9 °F 92.1 °F 73.9 °F 69% 29.97 in 10.0 mi SSW 8.1 mph - N/A   Clear
8:53 PM 82.9 °F 90.2 °F 75.0 °F 77% 29.97 in 10.0 mi SSW 4.6 mph - N/A   Clear
9:53 PM 82.9 °F 89.4 °F 73.9 °F 74% 29.98 in 10.0 mi SW 8.1 mph - N/A   Partly Cloudy
10:53 PM 82.9 °F 90.2 °F 75.0 °F 77% 29.98 in 10.0 mi SSW 10.4 mph - N/A   Clear
11:53 PM 82.9 °F 90.2 °F 75.0 °F 77% 29.98 in 10.0 mi SW 5.8 mph - N/A   Scattered Clouds